星链-1455 (STARLINK-1455 )

导读

STARLINK-1455是美国SpaceX公司星链(Starlink)星座的成员卫星,于2020年6月4日发射升空,属于星链项目早期部署的低轨互联网通信卫星。它运行在近地轨道,依托星链大规模星座组网,为全球提供高速低延迟互联网接入,服务偏远区域、航空及海洋通信,也可支持军事应急通信,是星链全球网络构建的重要组成部分。

基本信息
目录编号:
45672
目录名称:
STARLINK-1455
国际标识:
2020-035R
轨道中心:
EARTH
卫星名称:
星链-1455
卫星全名:
星链-1455 (STARLINK-1455 )
卫星状态:
已陨落 最后检测时间 2024-10-05
发射日期:
2020-06-04 UTC
国别 :
美国 (US)
星等 :
--
轨道信息
数据来源 国际轨道数据
星历时间: 2024-10-05T09:04:46+0800
轨道信息已过期617天
半长轴: 6557.422km
偏心率: 0.0007108
轨道倾角: 53.025°
近地点辐角 222.323°
升交点赤经 171.448°
平近点角 241.624°
近地点: 174.625km
远地点: 183.949km
周期: 88.076分钟
每日圈数: 16.349449
详细信息
固有亮度:
5
最大亮度:
2.5
卫星平台:
Starlink V1.0
覆盖范围:
全球
运营商:
太空探索技术公司
运营商所在国:
美国
制造商(研发单位):
太空探索技术公司
制造商所在国:
美国
使用方式:
暂无
卫星简介
星链(Starlink)计划是由太空探索技术公司(SpaceX)提出的一个巨型低轨卫星互联网星座项目,计划在2019年至2024年间在太空搭建由约1.2万颗卫星组成的“星链”网络,其中1584颗将部署在地球上空550千米处的近地轨道,并从2020年开始工作。该卫星仍在工作。